Simultaneous Nadir Overpasses (SNOs) Predictions

Prediction of SNOs between NOAA-19 and NPP Satellite Orbit:

Table of predicted SNOs for the next 14.0 days since TLE Epoch: 5/24/2019
Index Date (NOAA-19) Time (NOAA-19) Lat,Lon (NOAA-19) SZA (NOAA-19 ) Date (NPP) Time (NPP) Lat,Lon (NPP) SZA (NPP ) Distance(km) Time Diff (sec)
1 06/07/2019 01:17:48 -80.05, -59.28 120.25 06/07/2019 01:19:01 -80.07, -59.28 120.28 1.41 73
2 06/07/2019 02:08:44 80.06, 108.04 59.75 06/07/2019 02:09:46 80.07, 108.04 59.72 0.85 62
3 06/07/2019 02:59:48 -80.07, -84.52 120.27 06/07/2019 03:00:31 -80.07, -84.68 120.28 3.16 43
4 06/07/2019 03:50:44 80.08, 82.80 59.72 06/07/2019 03:51:16 80.07, 82.64 59.72 3.24 32
5 06/07/2019 04:41:49 -80.07,-110.06 120.28 06/07/2019 04:42:01 -80.07,-110.08 120.28 0.21 12
6 06/07/2019 05:32:45 80.07, 57.25 59.72 06/07/2019 05:32:46 80.07, 57.25 59.72 0.44 1
7 06/07/2019 06:23:50 -80.07,-135.61 120.28 06/07/2019 06:23:31 -80.07,-135.47 120.28 2.78 19
8 06/07/2019 07:14:46 80.07, 31.70 59.72 06/07/2019 07:14:16 80.07, 31.85 59.72 2.95 30
9 06/07/2019 08:05:50 -80.09,-160.84 120.31 06/07/2019 08:05:01 -80.07,-160.87 120.29 1.35 49
10 06/07/2019 08:56:46 80.09, 6.46 59.69 06/07/2019 08:55:46 80.07, 6.46 59.71 1.71 60




NCC Satellite Simultaneous Nadir Overpasses (SNOs) Prediction Service
